Torna al catalogo

STARLINK-36272

AttivoComunicazioniSSO
NORAD 68215·PAYLOAD·🇺🇸 United States

Lanciato Mar 17, 2026 da Vandenberg Space Force Base

Loading…

Prossimi Passaggi (prossime 24 ore)

TLE

AggiornatoSource: CelesTrak SupGP

Epoca: Sep 15, 2026, 03:45 UTC

1 68215C 26053J   26258.15673611  .00018389  00000+0  57066-3 0  2584
2 68215  97.2846 131.9767 0001811  94.3929 230.9840 15.33439969    10

Traccia STARLINK-36272 in tempo reale con AllMySat

Download on the App Store